Vertical_Velocity
-1 -1 -0 -0 -1 -1 -2 -2 -1 -1 -1 -1 -1 -0 0 0 -2 -2 -2 -0 -1 -2 -2 -2 -1 -1 -0 0 -0 -1 -1 -1 -0 0 0 -0 -0 -0 0 1 1 1 0 0 1 2 2 3 3 2 0 -1 -0 -0 -0 1 3 3 2 2 1 2 2 3 -0 0 2 3 3
-1 -0 -0 -0 -1 -1 -2 -2 -2 -1 -1 -0 -1 -1 -0 -0 -2 -2 -2 -0 -0 -1 -2 -2 -1 -0 -0 0 0 -0 -1 -1 -0 -0 -0 -0 -0 0 1 -0 -0 -0 -0 0 1 1 2 2 3 1 -0 -1 -1 -1 -1 0 3 3 1 -0 1 3 3 -0 -2 -0 2 3 3
-1 -1 -0 -0 -0 -0 -1 -2 -2 -1 -0 -0 -0 -0 -0 -0 -1 -1 -1 -1 -0 -0 -1 -2 -1 -0 -0 -0 0 0 -0 -0 -0 -0 -0 -0 0 1 1 1 0 -0 -0 0 0 1 1 2 2 1 -0 -1 -2 -2 -2 -0 3 2 1 -1 2 3 2 -2 -2 1 3 2 2
-1 -1 -1 -1 -0 -0 -1 -1 -1 -1 -1 -0 -0 -0 -0 -0 -0 -0 -1 -1 -0 -0 -0 -1 -1 -1 -1 -0 -0 0 0 0 0 -0 -0 -0 1 2 2 2 1 1 1 1 1 1 2 3 3 1 -1 -2 -2 -3 -2 -0 2 2 0 0 3 3 1 -2 -0 1 2 0 1
-2 -1 -1 -1 -1 -1 -1 -1 -1 -1 -1 -0 -1 -1 -0 0 0 -0 -1 -2 -2 -1 -0 0 -1 -1 -1 -1 -1 -1 -0 1 1 -0 -1 -1 0 1 2 2 2 2 2 3 2 3 4 5 4 1 -1 -1 -2 -3 -2 2 3 2 1 2 2 2 1 -0 0 1 2 0 1
-2 -2 -1 -1 -2 -2 -1 -1 -1 -1 -1 -1 -1 -2 -1 -0 -0 -1 -2 -3 -2 -2 -1 -1 -2 -2 -2 -1 -2 -2 -1 -0 -0 -0 -1 -1 -1 -0 1 1 2 2 3 3 3 4 5 6 4 2 0 0 -2 -3 -2 3 3 2 2 1 0 1 1 0 1 2 3 1 1
-3 -2 -2 -2 -1 -1 -1 -1 -1 -1 -1 -1 -2 -2 -2 -1 -1 -2 -2 -3 -3 -3 -2 -2 -2 -2 -2 -2 -2 -2 -2 -1 -1 -1 -1 -2 -2 -1 -1 -0 0 1 2 3 4 4 5 6 5 2 1 1 -1 -3 -1 4 4 3 2 -0 -0 1 2 -0 1 3 3 -0 1
-2 -2 -2 -2 -2 -1 -1 -1 -1 -1 -1 -1 -1 -2 -2 -2 -2 -2 -2 -3 -3 -3 -2 -2 -2 -2 -3 -3 -2 -2 -2 -2 -2 -1 -1 -2 -2 -2 -1 -1 -1 -0 0 2 3 4 5 6 4 2 1 1 -0 -1 -0 4 4 2 1 -0 1 2 2 0 2 2 2 1 1
-2 -2 -1 -1 -1 -1 -1 -1 -1 -1 -1 -1 -1 -1 -1 -2 -2 -2 -2 -2 -2 -2 -1 -1 -1 -2 -2 -2 -2 -2 -1 -2 -2 -1 -1 -1 -2 -2 -2 -1 -1 -1 -1 1 2 3 4 5 2 1 0 2 0 -0 1 5 4 1 -0 1 2 3 2 2 2 2 2 2 1
-3 -2 -1 -1 -1 -1 -1 -1 -1 -1 -1 -1 -1 -1 -1 -1 -1 -1 -1 -2 -1 -1 -0 -0 -1 -1 -1 -1 -1 -1 -1 -1 -1 -1 -1 -1 -1 -1 -1 -1 -1 -1 -1 0 1 2 3 3 0 -0 -0 1 1 2 3 6 4 2 -0 1 2 3 2 2 3 2 2 1 1
-3 -3 -2 -1 -1 -1 -1 -1 -1 -1 -2 -2 -1 -1 -0 -0 -0 -1 -1 -2 -1 -0 1 1 0 -0 -0 -0 -0 -0 -0 -0 -1 -1 -1 -1 -1 -1 -1 -1 -1 -1 -1 1 2 2 1 0 -1 -1 -0 1 2 3 4 5 4 3 1 0 2 3 2 1 3 3 2 0 1
-3 -3 -2 -2 -2 -2 -2 -2 -2 -1 -1 -2 -1 -1 0 1 0 -0 -0 -1 -1 -0 1 1 1 0 -0 -0 -0 -0 -0 -0 -1 -1 -1 -1 -1 -0 -0 -0 -1 -1 -0 1 2 1 0 -1 -2 -1 -1 1 2 3 3 4 4 3 2 1 3 2 1 -0 3 4 3 2 2
-2 -2 -2 -2 -2 -2 -3 -3 -2 -2 -2 -2 -1 -0 0 1 1 0 -0 -1 -1 -0 1 1 1 1 0 0 0 0 0 -0 -0 -1 -1 -2 -1 -1 -0 -0 -0 -0 -0 1 2 1 -0 -2 -1 -1 -0 1 2 2 3 4 4 3 2 2 3 2 0 -1 2 4 5 5 2
-1 -1 -1 -1 -1 -2 -2 -2 -2 -2 -2 -2 -1 -1 0 1 1 0 -0 -1 -0 -0 0 1 1 1 1 1 1 1 0 0 -0 -1 -1 -1 -1 -1 -1 -1 -0 -0 -0 0 1 1 0 -1 -0 -0 0 0 1 2 3 4 3 2 2 2 2 1 -0 0 2 5 6 4 2
0 1 1 1 0 -0 -1 -1 -1 -1 -2 -2 -2 -1 -0 0 1 1 0 -0 -0 -0 0 0 1 2 2 1 1 1 1 1 0 -0 -1 -1 -0 -0 -0 -1 -0 -0 -0 0 0 0 -0 -0 0 1 1 0 1 2 3 3 2 2 1 1 1 1 1 1 3 4 4 3 3
1 2 3 3 1 1 0 0 0 0 -0 -1 -1 -0 -0 -0 1 1 1 0 0 1 0 0 0 1 2 2 2 1 1 1 0 -0 -0 -1 -0 0 0 -0 -0 0 0 -0 -0 -1 -1 -0 1 1 1 0 0 1 3 3 2 2 1 1 1 1 1 2 3 3 3 2 3
1 3 4 5 3 2 1 1 1 1 1 -0 0 0 0 -0 1 1 1 1 1 1 1 1 1 1 1 2 2 2 1 0 -0 -0 -1 -1 -0 -0 0 -0 0 1 1 -0 -1 -2 -1 -0 0 1 1 0 0 1 2 3 2 2 1 2 2 2 2 2 4 4 3 3 2
1 3 5 7 6 4 3 3 3 2 2 1 2 2 1 1 1 2 2 2 2 1 1 1 1 1 1 1 2 2 1 -1 -1 -1 -1 -1 -1 -0 -0 -1 0 1 0 -0 -1 -2 -1 -0 0 1 0 -0 -0 0 1 2 2 1 1 2 2 2 2 3 4 4 4 3 1
-0 2 4 6 7 7 6 6 4 3 3 3 3 3 2 2 2 2 2 3 3 3 1 -0 -0 1 1 1 1 1 1 -1 -2 -2 -2 -2 -1 -1 -1 -1 -0 -0 -0 -1 -1 -1 -1 -0 0 0 0 -1 -1 -0 1 1 1 1 1 2 2 2 2 2 3 4 4 3 2
-1 -0 1 3 6 7 8 8 7 6 5 4 3 3 3 4 4 4 3 2 5 5 3 -0 -1 -0 1 2 1 1 1 1 -2 -3 -3 -2 -2 -1 -1 -1 -1 -0 -0 -0 -1 -0 -0 -0 0 0 0 -0 -1 -0 0 1 1 1 1 2 2 2 2 3 3 3 3 3 3
-1 -1 -0 1 3 5 7 8 10 9 8 5 4 3 3 4 5 5 4 4 6 6 4 1 0 0 1 2 2 2 2 2 0 -1 -2 -2 -2 -1 -1 -0 -1 -1 -1 -0 -0 0 1 1 0 0 0 -0 -1 -0 -0 1 0 0 0 1 1 1 2 3 3 3 2 2 3
-1 -1 -1 -1 0 2 4 7 10 10 10 7 4 3 2 3 4 5 6 7 7 6 4 2 2 1 2 2 3 3 3 3 2 1 -1 -1 -1 -0 0 1 -1 -1 -1 -0 0 1 1 0 0 0 0 -0 -1 -0 1 1 1 0 -0 0 0 1 1 2 2 2 2 2 2
-1 -1 -1 -2 -2 -1 0 3 6 9 10 8 6 5 4 3 3 5 7 8 7 6 4 4 3 3 3 4 4 4 3 3 2 2 1 1 -0 0 1 2 0 -1 -1 1 2 2 1 -0 -1 -0 0 0 -1 -0 1 2 1 1 -0 -0 0 0 1 1 2 1 1 1 2
-0 -1 -1 -1 -2 -2 -2 -2 1 4 6 8 8 8 7 5 5 6 7 8 8 7 7 6 6 6 6 6 6 6 4 3 2 2 2 3 2 1 1 2 1 -0 -0 1 3 3 2 -0 -2 -2 -2 -1 -1 -0 1 2 2 1 0 -0 0 0 0 0 1 1 1 0 1
-0 -0 -0 -0 -1 -1 -2 -3 -3 -2 -0 3 5 7 7 6 7 7 7 7 7 8 8 8 8 9 9 8 7 6 5 3 2 2 2 3 3 3 2 1 -0 -0 0 1 3 4 3 1 -2 -4 -5 -5 -4 -3 -2 -0 0 0 0 -0 -0 -0 -0 -1 -0 0 -0 -0 0
-0 -0 -0 0 -0 -1 -2 -3 -3 -3 -3 -2 1 2 3 4 5 5 4 2 2 4 6 7 7 8 8 7 5 3 2 2 2 2 3 3 3 2 2 1 -0 -0 0 2 3 4 3 2 1 -1 -3 -5 -6 -7 -7 -6 -5 -3 -2 -2 -2 -1 -2 -2 -2 -1 -1 -1 -0
-0 -1 -1 -1 -0 -1 -2 -2 -2 -2 -3 -3 -1 -0 0 1 2 1 -0 -2 -2 -2 0 2 3 5 5 4 2 1 1 2 4 4 3 3 2 1 0 0 -0 -0 1 2 3 3 3 2 2 2 2 -0 -2 -4 -6 -8 -7 -6 -4 -4 -4 -3 -3 -3 -3 -2 -1 -1 -1
-1 -1 -1 -2 -2 -2 -2 -1 -1 -1 -2 -2 -2 -2 -2 -2 -2 -2 -3 -3 -3 -3 -2 -2 1 3 4 2 1 1 3 5 5 4 3 2 -0 -1 -1 -1 -0 0 1 2 3 2 2 1 1 2 3 3 1 -0 -2 -2 -3 -4 -4 -4 -4 -4 -4 -4 -3 -2 -1 -2 -1
-1 -1 -2 -3 -3 -3 -2 -1 -1 -1 -0 -0 -1 -2 -2 -3 -4 -4 -4 -3 -2 -2 -3 -5 -3 -1 0 -1 -1 1 2 3 2 0 -1 -2 -3 -3 -2 -0 0 1 1 3 3 2 1 1 1 2 3 4 3 2 1 1 1 1 -1 -2 -3 -3 -3 -4 -3 -2 -1 -1 -0
-0 -1 -2 -2 -3 -3 -2 -1 0 1 1 1 -0 -1 -2 -4 -4 -4 -3 -1 -1 -1 -2 -3 -4 -6 -8 -9 -7 -5 -4 -6 -6 -6 -6 -5 -4 -2 -0 1 1 0 1 3 3 2 1 1 1 1 2 4 4 3 2 1 3 4 3 0 -1 -2 -2 -3 -3 -3 -2 -0 1
0 -0 -1 -2 -2 -2 -2 -1 0 1 1 0 -0 -1 -1 -2 -3 -2 0 2 1 0 1 2 -1 -5 -9 -9 -8 -9 -11 -12 -10 -8 -5 -2 -0 1 1 2 0 -0 0 3 3 2 1 0 0 1 2 3 3 2 1 -0 1 3 4 3 1 0 -0 -1 -2 -2 -3 -1 0
1 0 -0 -2 -2 -2 -1 -0 0 0 1 0 -0 -1 -1 -1 0 1 2 3 2 1 1 2 1 -1 -2 -2 -3 -5 -8 -8 -7 -4 1 4 4 3 1 0 -1 -1 0 2 2 1 -0 -0 -0 0 1 1 3 3 2 0 0 1 2 3 3 2 1 0 -1 -2 -3 -2 -1
0 0 -0 -1 -2 -2 -2 -0 0 0 0 -0 -0 -0 -0 -1 -0 1 2 3 3 2 0 -0 0 0 1 2 2 1 1 1 1 3 6 8 6 3 0 -2 -3 -2 0 2 1 0 -1 -0 -0 -0 0 1 3 3 2 2 1 1 1 1 2 2 2 1 -0 -1 -2 -2 -0
-1 -2 -3 -3 -4 -4 -4 -2 -1 -1 -1 -2 -1 -0 1 0 -1 -1 0 2 3 2 0 -0 0 1 2 3 4 4 4 5 6 6 6 6 6 3 -0 -4 -4 -2 1 3 2 1 0 1 1 1 1 1 2 2 1 2 2 2 1 1 2 3 3 2 -0 -1 -1 -1 -0
-3 -4 -5 -6 -6 -6 -5 -4 -3 -3 -3 -4 -4 -2 -0 1 1 -0 -0 1 2 2 0 -0 1 2 3 3 4 4 4 3 4 4 4 5 5 2 -2 -6 -6 -2 2 4 2 2 1 1 2 2 2 2 1 0 0 1 1 1 1 1 2 3 4 4 1 -0 -1 -1 -0
-2 -3 -4 -6 -6 -6 -5 -5 -4 -4 -4 -4 -4 -4 -3 -1 0 2 2 3 2 1 -1 -1 1 2 3 2 3 3 3 2 1 1 2 3 3 0 -3 -8 -8 -4 1 4 3 2 1 1 2 2 3 3 1 -0 -0 1 0 -0 -0 1 1 1 3 4 3 1 -1 -1 -1
-0 -1 -2 -4 -5 -4 -4 -3 -3 -3 -4 -3 -3 -2 -2 -2 -1 1 3 5 2 -1 -2 -1 0 1 2 2 2 2 2 3 2 1 0 1 1 -0 -4 -8 -8 -5 -0 4 4 3 2 1 2 3 3 3 1 -0 0 1 -0 -1 -1 -1 -1 -0 1 3 3 2 0 -1 -1
1 1 0 -2 -3 -4 -3 -2 -2 -3 -3 -4 -2 -1 -1 -1 -2 -1 2 5 3 -0 -3 -3 -2 -1 0 2 1 0 0 2 3 2 0 -2 -1 -1 -2 -6 -8 -6 -1 4 4 3 2 2 2 4 5 5 2 1 1 1 -0 -1 -1 -1 -2 -2 -1 2 3 2 1 -1 -1
1 2 1 0 -2 -3 -3 -2 -2 -2 -2 -4 -3 -2 -1 -1 -2 -1 1 4 4 2 -1 -3 -3 -2 -0 2 0 -1 -2 -0 2 3 1 -2 -2 -1 -1 -3 -7 -7 -3 3 4 3 3 2 3 4 5 6 4 3 2 2 1 -0 -0 1 -0 -1 -2 -0 1 1 -0 -2 -0
1 2 2 1 0 -1 -2 -3 -2 -1 -0 -1 -3 -3 -2 -1 -2 -1 -0 2 3 3 2 -1 -2 -2 -1 1 0 -2 -4 -4 -1 1 1 -0 -2 -1 0 -1 -5 -6 -4 1 4 4 4 3 3 4 5 6 4 3 2 2 1 -0 -0 1 1 0 -1 -2 0 0 -0 -2 -1
2 2 2 2 2 0 -1 -3 -2 -1 0 0 -1 -1 -1 -1 -2 -2 -1 0 1 2 2 0 -2 -2 -1 1 0 -2 -4 -7 -5 -1 1 2 0 -0 1 1 -2 -4 -4 -0 4 5 4 3 3 4 5 5 3 2 2 2 1 -1 -2 -1 2 2 1 -0 -0 -0 -1 -2 -2
Height
1501 1500 1499 1498 1497 1496 1495 1494 1494 1493 1492 1491 1490 1489 1488 1487 1486 1485 1485 1484 1483 1482 1481 1481 1480 1480 1479 1479 1478 1477 1476 1475 1475 1474 1474 1473 1472 1472 1472 1471 1471 1470 1470 1470 1470 1469 1469 1468 1468 1467 1466 1466 1465 1465 1465 1465 1465 1464 1464 1463 1463 1463 1462 1462 1462 1461 1462 1462 1461
1500 1499 1498 1497 1496 1495 1494 1493 1492 1492 1491 1490 1489 1488 1487 1486 1485 1484 1484 1483 1482 1481 1480 1480 1479 1478 1478 1477 1476 1475 1475 1474 1473 1472 1472 1471 1470 1470 1470 1469 1469 1468 1468 1467 1467 1467 1466 1466 1465 1465 1464 1463 1463 1462 1462 1462 1462 1462 1461 1460 1460 1460 1460 1459 1459 1459 1459 1459 1459
1499 1498 1497 1496 1495 1494 1493 1492 1491 1490 1490 1489 1488 1487 1486 1485 1484 1483 1482 1482 1481 1480 1479 1478 1478 1477 1476 1475 1475 1474 1473 1472 1471 1471 1470 1469 1469 1468 1467 1467 1466 1466 1465 1465 1465 1464 1464 1463 1463 1462 1461 1460 1460 1460 1459 1459 1459 1459 1458 1457 1457 1457 1457 1456 1455 1456 1456 1456 1455
1498 1497 1496 1495 1494 1493 1492 1491 1490 1489 1489 1488 1487 1486 1485 1484 1483 1482 1481 1480 1480 1479 1478 1477 1476 1475 1475 1474 1473 1472 1471 1470 1470 1469 1468 1467 1467 1466 1465 1465 1464 1463 1463 1462 1462 1461 1461 1460 1460 1459 1458 1457 1457 1456 1456 1456 1456 1456 1455 1454 1454 1454 1453 1453 1452 1453 1453 1452 1452
1497 1496 1495 1494 1493 1492 1491 1490 1489 1488 1487 1486 1485 1484 1484 1483 1482 1481 1480 1479 1478 1477 1476 1475 1475 1474 1473 1472 1471 1470 1470 1469 1468 1467 1466 1465 1465 1464 1463 1462 1461 1461 1460 1460 1459 1459 1458 1458 1457 1456 1455 1454 1454 1453 1453 1454 1453 1453 1452 1451 1451 1450 1450 1450 1449 1449 1449 1449 1449
1495 1494 1493 1492 1491 1490 1489 1488 1487 1486 1485 1485 1484 1483 1482 1481 1480 1479 1478 1477 1477 1476 1475 1474 1473 1472 1471 1470 1470 1469 1468 1467 1466 1465 1464 1463 1463 1462 1461 1460 1460 1459 1458 1457 1456 1456 1455 1455 1454 1453 1452 1451 1450 1450 1450 1451 1450 1450 1449 1448 1447 1447 1447 1446 1446 1446 1446 1446 1446
1494 1493 1491 1490 1490 1489 1488 1487 1486 1485 1484 1483 1482 1481 1480 1480 1479 1478 1477 1476 1475 1474 1474 1473 1471 1470 1470 1469 1468 1467 1466 1465 1464 1463 1462 1461 1461 1460 1459 1458 1457 1457 1456 1455 1454 1453 1453 1452 1451 1450 1449 1449 1448 1447 1447 1447 1447 1446 1445 1445 1444 1444 1444 1443 1443 1443 1443 1443 1442
1492 1491 1490 1489 1488 1487 1486 1485 1484 1483 1482 1481 1480 1480 1479 1478 1477 1476 1475 1474 1473 1472 1472 1471 1470 1469 1468 1467 1466 1465 1465 1464 1463 1462 1461 1460 1459 1458 1457 1457 1456 1455 1454 1453 1452 1451 1450 1450 1449 1447 1446 1446 1445 1444 1444 1444 1444 1443 1442 1442 1441 1441 1441 1440 1440 1440 1440 1440 1439
1490 1489 1488 1487 1486 1485 1484 1483 1482 1481 1480 1480 1479 1478 1477 1476 1475 1474 1473 1472 1471 1471 1470 1469 1468 1467 1466 1465 1465 1464 1463 1462 1461 1460 1459 1458 1457 1456 1455 1455 1454 1453 1452 1451 1450 1449 1448 1447 1446 1445 1444 1443 1442 1441 1441 1441 1440 1440 1439 1439 1439 1438 1438 1437 1437 1437 1436 1436 1436
1488 1487 1486 1485 1484 1483 1482 1481 1480 1480 1479 1478 1477 1476 1475 1474 1473 1472 1471 1470 1470 1469 1468 1467 1466 1465 1464 1464 1463 1462 1461 1460 1459 1458 1457 1456 1455 1455 1454 1453 1452 1451 1450 1449 1448 1447 1446 1445 1443 1442 1441 1440 1440 1439 1438 1438 1437 1436 1436 1435 1435 1435 1435 1435 1434 1434 1433 1433 1432
1486 1485 1485 1484 1483 1481 1480 1480 1479 1478 1477 1476 1475 1474 1473 1472 1471 1470 1470 1469 1468 1467 1466 1465 1464 1463 1462 1462 1461 1460 1459 1458 1457 1456 1455 1454 1454 1453 1451 1450 1450 1449 1448 1447 1446 1445 1443 1442 1441 1440 1439 1438 1437 1436 1435 1435 1434 1433 1433 1432 1432 1432 1432 1431 1431 1431 1430 1430 1429
1485 1484 1483 1482 1480 1480 1479 1478 1477 1476 1475 1474 1473 1473 1471 1470 1470 1469 1468 1467 1466 1465 1464 1463 1462 1461 1460 1460 1459 1458 1457 1456 1455 1454 1453 1452 1451 1450 1450 1448 1447 1446 1445 1445 1443 1442 1441 1439 1438 1437 1436 1435 1434 1433 1432 1432 1431 1430 1430 1429 1429 1429 1428 1428 1428 1428 1427 1427 1426
1482 1481 1480 1480 1479 1478 1477 1476 1475 1474 1473 1472 1471 1471 1470 1469 1468 1466 1465 1465 1464 1463 1462 1461 1460 1459 1458 1457 1456 1455 1454 1453 1452 1451 1450 1450 1449 1448 1447 1446 1445 1444 1443 1442 1441 1440 1438 1437 1435 1434 1433 1432 1431 1430 1430 1429 1428 1427 1426 1426 1425 1425 1424 1424 1425 1425 1425 1424 1423
1480 1479 1478 1477 1476 1475 1475 1474 1473 1472 1471 1470 1470 1469 1468 1467 1466 1465 1463 1462 1461 1461 1460 1459 1458 1457 1456 1455 1454 1453 1452 1451 1450 1449 1448 1447 1446 1445 1445 1444 1443 1442 1440 1440 1438 1437 1436 1434 1433 1431 1430 1429 1428 1427 1426 1425 1425 1424 1423 1422 1422 1421 1420 1420 1421 1421 1422 1421 1420
1478 1477 1476 1475 1474 1473 1472 1471 1470 1470 1469 1468 1467 1467 1466 1465 1464 1463 1461 1460 1459 1459 1458 1457 1456 1455 1454 1453 1452 1450 1450 1449 1448 1446 1445 1445 1444 1443 1442 1441 1440 1439 1438 1437 1435 1434 1433 1431 1430 1429 1427 1426 1425 1424 1423 1422 1421 1420 1419 1419 1418 1417 1417 1417 1417 1418 1418 1417 1416
1476 1475 1474 1473 1472 1471 1470 1469 1468 1467 1467 1466 1465 1465 1464 1463 1462 1460 1459 1458 1457 1456 1455 1454 1454 1453 1452 1451 1450 1448 1447 1446 1445 1444 1443 1442 1441 1440 1440 1438 1437 1436 1435 1434 1433 1431 1430 1429 1427 1426 1425 1423 1422 1420 1420 1419 1418 1417 1415 1415 1414 1414 1413 1413 1414 1414 1414 1414 1413
1474 1473 1472 1471 1470 1469 1468 1467 1466 1465 1464 1464 1463 1462 1461 1460 1460 1458 1457 1456 1455 1454 1453 1452 1451 1450 1449 1448 1447 1446 1445 1444 1443 1442 1440 1440 1439 1438 1437 1436 1435 1434 1433 1431 1430 1429 1427 1426 1425 1423 1422 1420 1419 1417 1416 1415 1414 1413 1412 1411 1410 1410 1410 1410 1410 1410 1410 1410 1409
1472 1471 1470 1469 1468 1467 1466 1465 1464 1463 1462 1461 1460 1460 1459 1458 1457 1456 1455 1454 1453 1452 1450 1450 1449 1448 1447 1446 1445 1444 1443 1441 1440 1439 1438 1437 1436 1435 1434 1433 1432 1431 1430 1428 1427 1426 1425 1423 1422 1420 1419 1417 1416 1415 1413 1412 1411 1410 1409 1408 1407 1406 1406 1406 1406 1406 1406 1406 1405
1469 1469 1468 1467 1466 1465 1464 1463 1462 1461 1460 1459 1458 1457 1457 1456 1455 1454 1453 1452 1451 1450 1448 1447 1446 1445 1445 1444 1443 1441 1440 1439 1438 1436 1435 1435 1433 1432 1431 1430 1429 1428 1427 1425 1424 1423 1421 1420 1419 1418 1416 1415 1413 1412 1410 1409 1408 1406 1405 1405 1404 1403 1402 1402 1402 1402 1402 1402 1401
1467 1466 1465 1465 1464 1463 1462 1461 1460 1459 1458 1457 1456 1455 1454 1454 1453 1452 1451 1450 1449 1448 1446 1445 1444 1443 1442 1441 1440 1439 1438 1437 1435 1434 1433 1432 1431 1430 1428 1427 1426 1425 1424 1422 1421 1420 1418 1417 1416 1415 1413 1411 1410 1409 1407 1406 1405 1403 1402 1401 1400 1399 1399 1398 1398 1398 1398 1398 1398
1465 1464 1463 1462 1461 1460 1459 1459 1458 1457 1456 1455 1454 1453 1452 1451 1450 1450 1448 1447 1446 1445 1444 1442 1441 1440 1439 1438 1437 1436 1435 1434 1433 1432 1430 1429 1428 1427 1426 1425 1423 1422 1420 1419 1418 1417 1415 1414 1413 1411 1410 1408 1407 1405 1404 1403 1401 1400 1399 1398 1397 1396 1395 1395 1394 1394 1394 1394 1394
1462 1461 1460 1459 1458 1457 1457 1456 1455 1455 1454 1453 1451 1450 1450 1449 1448 1447 1446 1445 1444 1442 1441 1440 1439 1438 1436 1435 1435 1433 1432 1431 1430 1429 1428 1426 1425 1424 1423 1422 1420 1419 1417 1416 1415 1414 1412 1410 1409 1408 1406 1405 1403 1402 1400 1399 1398 1396 1395 1394 1393 1392 1392 1391 1391 1390 1390 1390 1390
1460 1459 1458 1457 1455 1455 1454 1453 1453 1452 1451 1450 1449 1448 1447 1446 1445 1444 1443 1442 1441 1440 1438 1437 1436 1435 1434 1433 1431 1430 1429 1428 1427 1426 1425 1424 1422 1421 1420 1419 1417 1416 1414 1413 1412 1410 1409 1407 1406 1405 1403 1402 1400 1398 1397 1396 1395 1393 1392 1391 1390 1389 1388 1387 1387 1386 1386 1386 1386
1458 1456 1455 1454 1453 1452 1451 1450 1450 1449 1448 1448 1447 1446 1445 1444 1442 1441 1440 1439 1438 1437 1436 1435 1433 1432 1431 1430 1428 1427 1426 1425 1423 1422 1421 1420 1419 1418 1417 1415 1414 1412 1411 1410 1409 1407 1405 1404 1402 1400 1399 1398 1396 1395 1393 1392 1391 1390 1388 1387 1386 1385 1385 1384 1383 1383 1382 1382 1382
1455 1454 1453 1452 1450 1449 1448 1447 1446 1445 1445 1444 1444 1443 1441 1440 1440 1438 1437 1436 1435 1434 1432 1431 1430 1429 1428 1426 1425 1424 1422 1421 1420 1419 1418 1417 1416 1415 1413 1412 1410 1409 1408 1406 1405 1404 1402 1400 1399 1397 1395 1394 1392 1390 1389 1388 1387 1386 1385 1384 1383 1382 1381 1380 1380 1379 1379 1378 1378
1453 1451 1450 1449 1448 1447 1445 1445 1443 1442 1441 1440 1440 1439 1438 1437 1436 1435 1433 1432 1430 1430 1428 1427 1426 1425 1423 1422 1421 1420 1418 1417 1416 1415 1414 1413 1412 1411 1410 1409 1407 1405 1404 1403 1402 1401 1399 1398 1396 1394 1392 1390 1388 1386 1384 1383 1382 1381 1380 1380 1379 1378 1377 1377 1376 1376 1375 1375 1375
1450 1449 1448 1447 1445 1444 1443 1442 1441 1439 1438 1437 1436 1435 1434 1433 1431 1430 1429 1427 1426 1425 1424 1423 1421 1420 1419 1418 1416 1415 1415 1414 1413 1412 1411 1410 1409 1408 1406 1405 1404 1402 1401 1400 1399 1397 1396 1395 1393 1392 1390 1388 1385 1383 1381 1379 1377 1376 1376 1375 1375 1374 1374 1373 1372 1372 1372 1371 1371
1448 1447 1445 1444 1443 1442 1440 1440 1438 1437 1435 1434 1433 1432 1430 1429 1428 1426 1425 1423 1422 1421 1420 1418 1417 1416 1415 1414 1413 1412 1411 1410 1409 1408 1407 1406 1405 1404 1403 1401 1400 1399 1397 1396 1395 1394 1392 1391 1390 1389 1387 1385 1384 1381 1379 1377 1375 1373 1372 1371 1370 1370 1370 1369 1369 1369 1369 1368 1368
1447 1445 1444 1442 1441 1439 1438 1437 1435 1434 1433 1432 1430 1429 1427 1426 1425 1423 1421 1420 1419 1417 1416 1415 1413 1412 1411 1410 1409 1408 1407 1406 1405 1405 1404 1403 1402 1401 1399 1398 1396 1395 1394 1393 1391 1390 1389 1388 1386 1385 1384 1383 1381 1379 1377 1375 1373 1371 1369 1367 1366 1365 1365 1365 1365 1365 1365 1365 1365
1446 1444 1442 1440 1439 1437 1436 1435 1433 1432 1430 1429 1427 1426 1424 1423 1421 1420 1418 1417 1415 1414 1412 1411 1410 1409 1408 1407 1406 1405 1404 1403 1402 1402 1401 1400 1398 1397 1396 1395 1393 1391 1390 1389 1388 1387 1385 1384 1383 1382 1381 1380 1378 1376 1375 1373 1371 1369 1367 1365 1363 1362 1362 1361 1362 1362 1362 1362 1362
1444 1442 1440 1439 1437 1435 1434 1432 1431 1429 1427 1426 1424 1423 1421 1420 1418 1416 1415 1414 1412 1410 1409 1408 1406 1405 1404 1403 1402 1401 1400 1400 1399 1398 1397 1396 1395 1393 1392 1391 1389 1388 1387 1386 1385 1383 1382 1381 1380 1378 1377 1376 1375 1373 1371 1370 1368 1367 1365 1363 1361 1359 1358 1358 1358 1358 1358 1359 1359
1442 1440 1438 1436 1435 1433 1431 1430 1428 1427 1425 1423 1421 1420 1418 1416 1415 1413 1412 1410 1409 1407 1405 1404 1402 1401 1400 1399 1398 1398 1397 1396 1396 1395 1394 1393 1391 1390 1388 1387 1385 1384 1383 1382 1381 1380 1379 1377 1376 1375 1374 1373 1371 1370 1368 1366 1365 1363 1362 1360 1359 1357 1356 1355 1355 1355 1355 1355 1355
1440 1438 1435 1434 1432 1430 1429 1427 1425 1424 1422 1420 1419 1417 1415 1413 1411 1410 1409 1407 1405 1404 1402 1400 1399 1397 1396 1395 1395 1394 1393 1393 1392 1391 1390 1389 1387 1386 1385 1383 1382 1381 1380 1379 1378 1376 1375 1374 1373 1371 1370 1369 1368 1367 1365 1363 1361 1360 1359 1357 1356 1355 1353 1352 1352 1351 1352 1352 1352
1437 1435 1433 1431 1429 1427 1425 1424 1422 1420 1419 1417 1415 1414 1412 1410 1408 1406 1405 1404 1402 1400 1399 1397 1396 1394 1393 1392 1391 1390 1389 1389 1388 1387 1386 1385 1384 1382 1381 1379 1378 1377 1377 1376 1375 1373 1372 1371 1370 1368 1367 1366 1365 1363 1362 1360 1358 1357 1355 1354 1353 1352 1351 1350 1349 1348 1348 1349 1349
1434 1432 1430 1428 1426 1424 1423 1421 1419 1417 1415 1414 1412 1410 1409 1407 1405 1404 1402 1400 1399 1397 1395 1394 1393 1391 1390 1389 1388 1387 1386 1385 1384 1383 1382 1381 1380 1379 1377 1376 1375 1374 1373 1373 1371 1370 1369 1368 1366 1365 1364 1363 1361 1360 1358 1356 1355 1353 1352 1350 1350 1349 1348 1347 1346 1345 1345 1345 1345
1431 1429 1427 1425 1423 1421 1420 1418 1416 1414 1412 1410 1409 1407 1405 1404 1402 1401 1399 1398 1396 1394 1392 1391 1390 1388 1387 1385 1385 1384 1382 1381 1380 1380 1379 1378 1377 1375 1374 1372 1371 1370 1370 1369 1368 1367 1366 1364 1363 1362 1360 1359 1357 1355 1354 1352 1351 1349 1348 1347 1346 1345 1345 1345 1344 1342 1342 1342 1342
1429 1426 1424 1422 1420 1419 1417 1415 1413 1411 1410 1408 1406 1404 1403 1401 1399 1398 1396 1395 1393 1391 1389 1388 1387 1385 1384 1383 1381 1380 1380 1379 1377 1376 1375 1375 1374 1372 1370 1369 1368 1367 1366 1366 1365 1364 1362 1361 1360 1358 1357 1356 1354 1352 1350 1349 1347 1346 1344 1343 1342 1342 1342 1341 1341 1340 1339 1339 1338
1426 1424 1422 1420 1417 1416 1414 1412 1410 1409 1407 1405 1403 1401 1400 1398 1396 1395 1393 1392 1390 1388 1386 1385 1384 1382 1381 1380 1379 1377 1376 1376 1375 1374 1372 1371 1370 1369 1368 1366 1364 1363 1363 1362 1361 1360 1359 1357 1356 1355 1354 1353 1351 1349 1347 1345 1344 1342 1341 1340 1339 1338 1338 1338 1338 1337 1336 1335 1335
1423 1421 1419 1417 1415 1413 1411 1410 1408 1406 1404 1402 1400 1399 1397 1395 1394 1392 1390 1390 1388 1386 1384 1382 1380 1379 1378 1377 1376 1374 1373 1372 1372 1371 1370 1368 1367 1366 1365 1363 1361 1360 1359 1359 1358 1357 1355 1354 1353 1352 1351 1350 1348 1346 1345 1343 1341 1339 1338 1337 1336 1335 1335 1334 1334 1334 1333 1332 1333
1420 1418 1416 1414 1412 1411 1409 1407 1405 1403 1402 1400 1398 1396 1394 1393 1391 1389 1388 1386 1385 1384 1382 1380 1378 1376 1375 1374 1373 1371 1370 1369 1369 1368 1367 1365 1364 1363 1362 1360 1358 1357 1356 1355 1355 1353 1352 1351 1350 1349 1348 1346 1345 1343 1342 1340 1338 1336 1335 1334 1333 1332 1331 1331 1331 1330 1330 1330 1330
1417 1415 1414 1412 1410 1408 1406 1404 1402 1401 1399 1398 1395 1394 1392 1390 1388 1387 1385 1384 1382 1381 1379 1377 1375 1374 1373 1372 1370 1369 1367 1366 1365 1364 1364 1362 1361 1360 1359 1357 1355 1354 1353 1352 1351 1350 1349 1348 1346 1345 1345 1344 1342 1340 1339 1337 1335 1334 1332 1331 1330 1330 1329 1328 1328 1327 1327 1326 1326